Flag for Australia Weather past 2 weeks in Sydney, New South Wales, Australia

Now
66 °F

Partly cloudy.


Feels Like: 66 °F
Forecast: 66 / 67 °F
Wind: 12 mph from South

Location: Sydney Airport

Current Time: Jan 26, 2015 at 10:06:52 PM

Latest Report: Jan 26, 2015 at 9:00 PM


Visibility: N/A

Pressure: 29.95 "Hg

Humidity: 94%

Dew point: 64 °F

Location of SydneyLocation

Historic Weather in Sydney — Graph

°F

Sydney temperature yesterday

Maximum temperature yesterday: 95 °F (at 1:30 PM)
Minimum temperature yesterday: 72 °F (at 3:00 AM)
Average temperature yesterday: 80 °F

Past Weeks' High & Low Weather Summary

 TemperatureHumidityPressure
High95 °F (Jan 17, 2:00 PM)100% (Jan 13, 3:00 AM)30.01 "Hg (Jan 13, 3:00 AM)
Low66 °F (Jan 13, 3:00 AM)15% (Jan 17, 2:00 PM)29.45 "Hg (Jan 14, 3:30 AM)
Average76 °F69%29.78 "Hg
* Reported Jan 11 9:00 PM — Jan 26 9:00 PM, Sydney, Weather by CustomWeather, © 2014

Note: Actual official high and low records may vary slightly from our data, if they occured in-between our weather recording intervals... More about our weather records

Advertising

Sydney weather history for previous 24 hours

 ConditionsComfort  
Time TempWeatherWind HumidityBarometerVisibility
9:00 PM
Jan 26
66 °FPartly cloudy.12 mph94%29.95 "HgN/A
8:30 PM66 °FPartly cloudy.10 mph94%29.95 "HgN/A
8:00 PM66 °FSprinkles. Broken clouds.13 mph94%29.95 "Hg2 mi
7:00 PM66 °FSprinkles. Partly sunny.17 mph94%29.92 "Hg2 mi
6:49 PM66 °FRain showers. Partly sunny.18 mph94%29.92 "Hg2 mi
6:00 PM66 °FSprinkles. Broken clouds.18 mph94%29.92 "Hg3 mi
5:49 PM66 °FSprinkles. Broken clouds.20 mph94%29.92 "Hg2 mi
5:30 PM68 °FDrizzle. Mostly cloudy.17 mph83%29.92 "Hg4 mi
5:00 PM66 °FDrizzle. More clouds than sun.21 mph88%29.92 "Hg4 mi
4:30 PM68 °FDrizzle. More clouds than sun.21 mph83%29.92 "HgN/A
4:00 PM68 °FDrizzle. More clouds than sun.21 mph83%29.92 "HgN/A
3:30 PM66 °FSprinkles. More clouds than sun.21 mph88%29.92 "HgN/A
3:00 PM68 °FDrizzle. More clouds than sun.18 mph83%29.92 "HgN/A
2:00 PM68 °FDrizzle. More clouds than sun.18 mph83%29.92 "Hg5 mi
1:30 PM68 °FDrizzle. Partly sunny.20 mph83%29.92 "Hg5 mi
1:00 PM68 °FSprinkles. More clouds than sun.18 mph83%29.92 "HgN/A
12:30 PM68 °FDrizzle. More clouds than sun.17 mph83%29.92 "HgN/A
12:00 PM68 °FDrizzle. More clouds than sun.18 mph88%29.92 "Hg4 mi
11:30 AM68 °FDrizzle. More clouds than sun.20 mph83%29.92 "Hg4 mi
11:00 AM70 °FDrizzle. More clouds than sun.17 mph78%29.92 "Hg6 mi
10:30 AM70 °FDrizzle. More clouds than sun.20 mph78%29.92 "HgN/A
10:00 AM68 °FDrizzle. Mostly cloudy.18 mph83%29.92 "HgN/A
9:30 AM68 °FDrizzle. More clouds than sun.20 mph88%29.92 "HgN/A
9:00 AM68 °FDrizzle. Mostly cloudy.20 mph88%29.92 "Hg6 mi
8:30 AM70 °FDrizzle. Mostly cloudy.21 mph83%29.89 "Hg5 mi
8:00 AM70 °FDrizzle. More clouds than sun.17 mph78%29.89 "Hg6 mi
7:30 AM70 °FScattered showers. Broken clouds.17 mph78%29.89 "HgN/A
7:00 AM70 °FBroken clouds.20 mph83%29.86 "HgN/A
6:30 AM70 °FBroken clouds.18 mph83%29.86 "HgN/A
6:00 AM70 °FPartly cloudy.18 mph83%29.86 "HgN/A
5:30 AM68 °FPartly cloudy.17 mph88%29.83 "HgN/A
5:00 AM68 °FSprinkles. Partly cloudy.17 mph88%29.83 "HgN/A
4:30 AM68 °FSprinkles. Partly cloudy.20 mph88%29.83 "HgN/A
4:00 AM68 °FSprinkles. Partly cloudy.16 mph88%29.83 "HgN/A
3:30 AM70 °FSprinkles. Partly cloudy.18 mph83%29.83 "HgN/A
3:00 AM70 °FSprinkles. Partly cloudy.18 mph83%29.83 "HgN/A
2:30 AM72 °FPassing clouds.14 mph78%29.80 "HgN/A
2:00 AM72 °FScattered showers. Partly cloudy.16 mph78%29.83 "HgN/A
1:30 AM72 °FPartly cloudy.15 mph83%29.83 "HgN/A
1:00 AM72 °FPassing clouds.15 mph83%29.80 "HgN/A
12:30 AM72 °FPassing clouds.20 mph78%29.80 "HgN/A
12:00 AM72 °FPassing clouds.20 mph83%29.80 "HgN/A
11:30 PM
Jan 25
72 °FPassing clouds.18 mph83%29.80 "HgN/A
11:00 PM72 °FPassing clouds.22 mph88%29.80 "HgN/A
10:30 PM73 °FPassing clouds.22 mph83%29.77 "HgN/A
10:00 PM73 °FPassing clouds.23 mph78%29.77 "HgN/A
Weather by CustomWeather, © 2014

See weather overviewHow to use our weather pages